GW1296 Weather Reports


time (UTC)temp
C
wind
direction
speed
KPH
gust
KPH
rain 1hr
cm
rain 24hr
cm
rain mn
cm
humidity
%
barometer
mb
20260503021546 10 117 0.0 6.4 0.00 0.03 0.00 95 1012.1
20260503021540 10 0 0.0 6.4 0.00 0.00 0.00 94 1011.2
20260503020045 10 111 1.6 6.4 0.00 0.03 0.00 94 1012.2
20260503020040 10 116 0.0 6.4 0.00 0.00 0.00 94 1011.2
20260503014604 10 117 0.0 4.8 0.00 0.03 0.00 94 1012.2
20260503014549 10 117 0.0 4.8 0.00 0.00 0.00 94 1011.3
20260503013043 10 128 1.6 8.0 0.00 0.03 0.00 94 1012.3
20260503013035 10 0 1.6 8.0 0.00 0.00 0.00 94 1011.3
20260503011542 10 128 0.0 3.2 0.00 0.03 0.00 94 1012.4
20260503011534 10 0 0.0 3.2 0.00 0.00 0.00 94 1011.5
20260503010041 10 128 0.0 3.2 0.00 0.03 0.00 94 1012.4
20260503004540 10 0 0.0 1.6 0.00 0.00 0.00 94 1011.6
20260503003045 10 0 0.0 3.2 0.00 0.00 0.00 94 1011.7
20260503003038 10 128 0.0 1.6 0.00 0.03 0.00 94 1012.6
20260503001551 10 128 0.0 0.0 0.00 0.03 0.00 94 1012.6
20260503001536 10 0 0.0 0.0 0.00 0.00 0.00 93 1011.6
20260503000047 10 0 0.0 1.6 0.00 0.00 0.00 93 1011.6
20260503000036 10 128 0.0 0.0 0.00 0.03 0.00 94 1012.6
20260502234552 10 0 0.0 0.0 0.00 0.00 0.00 93 1011.7
20260502234540 10 128 0.0 0.0 0.00 0.03 0.00 94 1012.6
20260502233040 10 0 0.0 0.0 0.00 0.00 0.00 93 1011.7
20260502233033 10 128 0.0 0.0 0.00 0.03 0.00 93 1012.6
20260502231539 10 0 0.0 0.0 0.00 0.00 0.00 93 1011.8
20260502231533 10 128 0.0 0.0 0.00 0.03 0.00 93 1012.8
20260502230036 10 0 0.0 0.0 0.00 0.00 0.00 92 1011.7
20260502224534 10 0 0.0 0.0 0.00 0.00 0.00 92 1011.7
20260502223040 10 0 0.0 0.0 0.00 0.00 0.00 92 1011.7
20260502223030 10 128 0.0 0.0 0.00 0.03 0.03 93 1012.7
20260502221532 11 0 0.0 0.0 0.00 0.00 0.00 92 1011.8
20260502220039 11 0 0.0 1.6 0.00 0.00 0.00 92 1011.7
20260502220029 11 130 0.0 1.6 0.03 0.03 0.03 92 1012.8
20260502214545 11 0 0.0 3.2 0.00 0.00 0.00 92 1011.7
20260502214529 11 130 0.0 1.6 0.03 0.03 0.03 92 1012.8
20260502213042 11 0 0.0 0.0 0.00 0.00 0.00 91 1011.7
20260502213027 11 130 0.0 0.0 0.03 0.03 0.03 92 1012.8
20260502211535 11 0 0.0 0.0 0.00 0.00 0.00 91 1011.8
20260502211526 11 130 0.0 0.0 0.00 0.00 0.00 91 1012.9
20260502210034 11 0 0.0 4.8 0.00 0.00 0.00 90 1011.9
20260502210027 11 130 0.0 4.8 0.00 0.00 0.00 91 1012.9
20260502204538 11 120 0.0 6.4 0.00 0.00 0.00 90 1011.7
20260502204528 11 121 1.6 6.4 0.00 0.00 0.00 91 1012.8
20260502203055 11 117 3.2 12.9 0.00 0.00 0.00 89 1011.8
20260502203024 11 117 3.2 11.3 0.00 0.00 0.00 89 1012.9
20260502201543 11 129 1.6 11.3 0.00 0.00 0.00 87 1011.8
20260502201525 11 135 1.6 11.3 0.00 0.00 0.00 88 1012.9
20260502200045 12 118 1.6 6.4 0.00 0.00 0.00 86 1011.8
20260502200023 12 117 1.6 6.4 0.00 0.00 0.00 86 1013.0
20260502194536 12 134 0.0 9.7 0.00 0.00 0.00 84 1011.7
20260502194522 12 134 1.6 9.7 0.00 0.00 0.00 85 1012.9
20260502193040 12 0 0.0 4.8 0.00 0.00 0.00 84 1011.7
20260502193023 12 119 0.0 4.8 0.00 0.00 0.00 84 1012.8
20260502191544 12 0 1.6 6.4 0.00 0.00 0.00 83 1011.7
20260502191522 12 131 1.6 6.4 0.00 0.00 0.00 84 1012.9
20260502190039 12 126 0.0 9.7 0.00 0.00 0.00 83 1011.6
20260502190021 12 124 0.0 9.7 0.00 0.00 0.00 83 1012.8
20260502184539 13 0 0.0 8.0 0.00 0.00 0.00 82 1011.6
20260502184532 13 123 0.0 6.4 0.00 0.00 0.00 83 1012.8
20260502183037 13 0 0.0 6.4 0.00 0.00 0.00 83 1011.6
20260502183028 13 117 0.0 6.4 0.00 0.00 0.00 83 1012.7
20260502181534 13 117 1.6 11.3 0.00 0.00 0.00 82 1011.5
20260502181520 13 117 1.6 6.4 0.00 0.00 0.00 82 1012.7
20260502163050 15 0 1.6 11.3 0.00 0.00 0.00 79 1011.7
20260502163016 15 116 1.6 11.3 0.00 0.00 0.00 79 1012.7
20260502161554 14 123 3.2 16.1 0.00 0.00 0.00 79 1011.8
20260502161513 14 116 1.6 16.1 0.00 0.00 0.00 79 1012.9
20260502151540 15 0 1.6 8.0 0.00 0.00 0.00 75 1012.4
20260502151507 15 130 0.0 6.4 0.00 0.00 0.00 75 1013.5
20260502123106 15 121 3.2 12.9 0.00 0.00 0.00 73 1013.7
20260502123055 15 115 3.2 12.9 0.00 0.00 0.00 73 1014.7
20260502121555 15 113 1.6 9.7 0.00 0.00 0.00 71 1014.9
20260502121540 15 180 1.6 9.7 0.00 0.00 0.00 71 1013.9
20260502114553 15 242 0.0 4.8 0.00 0.00 0.00 70 1015.0
20260502114534 15 0 0.0 4.8 0.00 0.00 0.00 70 1014.0
20260502113051 15 255 0.0 6.4 0.00 0.00 0.00 71 1014.9
20260502113037 15 0 0.0 6.4 0.00 0.00 0.00 71 1013.9
20260502111552 15 266 1.6 9.7 0.00 0.00 0.00 70 1014.9
20260502111544 15 267 1.6 9.7 0.00 0.00 0.00 70 1013.9
20260502110053 15 192 1.6 6.4 0.00 0.00 0.00 70 1014.9
20260502110042 15 179 1.6 6.4 0.00 0.00 0.00 69 1014.0
20260502104548 15 167 0.0 8.0 0.00 0.00 0.00 72 1015.0
20260502104536 15 0 0.0 9.7 0.00 0.00 0.00 71 1014.1
20260502103048 15 115 3.2 12.9 0.00 0.00 0.00 72 1015.1
20260502103042 15 0 3.2 12.9 0.00 0.00 0.00 71 1014.1
20260502101552 15 142 1.6 6.4 0.00 0.00 0.00 71 1015.2
20260502101541 15 117 1.6 6.4 0.00 0.00 0.00 70 1014.3
20260502091534 15 0 1.6 11.3 0.00 0.00 0.00 71 1014.7
20260502071533 13 129 0.0 4.8 0.00 0.00 0.00 77 1015.1
20260502071515 13 129 0.0 3.2 0.00 0.00 0.00 78 1016.2
20260502070040 12 0 0.0 6.4 0.00 0.00 0.00 82 1015.2
20260502070011 12 129 0.0 4.8 0.00 0.00 0.00 82 1016.3
20260502064545 12 0 0.0 0.0 0.00 0.00 0.00 82 1015.2
20260502064509 12 161 0.0 0.0 0.00 0.00 0.00 82 1016.3
20260502063035 11 0 0.0 0.0 0.00 0.00 0.00 85 1015.2
20260502063022 11 161 0.0 0.0 0.00 0.00 0.00 86 1016.3
20260502061534 11 0 0.0 0.0 0.00 0.00 0.00 88 1015.2
20260502061507 11 161 0.0 0.0 0.00 0.00 0.00 89 1016.4
20260502060040 10 0 0.0 0.0 0.00 0.00 0.00 88 1015.2
20260502060003 10 161 0.0 0.0 0.00 0.00 0.00 89 1016.4
20260502054559 9 161 0.0 0.0 0.00 0.00 0.00 89 1016.3
20260502054538 9 0 0.0 0.0 0.00 0.00 0.00 88 1015.1
20260502053122 9 161 0.0 0.0 0.00 0.00 0.00 88 1016.2
20260502053038 9 0 0.0 0.0 0.00 0.00 0.00 87 1015.1
20260502051606 10 161 0.0 0.0 0.00 0.00 0.00 87 1016.3
20260502051537 10 0 0.0 0.0 0.00 0.00 0.00 86 1015.1
20260502050056 10 161 0.0 0.0 0.00 0.00 0.00 86 1016.5
20260502050041 10 0 0.0 0.0 0.00 0.00 0.00 86 1015.3
20260502044549 10 161 0.0 0.0 0.00 0.00 0.00 85 1016.5
20260502044544 10 0 0.0 0.0 0.00 0.00 0.00 84 1015.3
20260502043054 10 161 0.0 0.0 0.00 0.00 0.00 83 1016.4
20260502043044 10 0 0.0 0.0 0.00 0.00 0.00 83 1015.3
20260502041603 11 161 0.0 0.0 0.00 0.00 0.00 83 1016.5
20260502041541 11 0 0.0 0.0 0.00 0.00 0.00 83 1015.3
20260502040044 11 161 0.0 0.0 0.00 0.00 0.00 82 1016.8
20260502040034 11 0 0.0 0.0 0.00 0.00 0.00 81 1015.6
20260502034542 11 161 0.0 0.0 0.00 0.00 0.00 80 1016.7
20260502034533 11 0 0.0 3.2 0.00 0.00 0.00 79 1015.6
20260502033050 12 227 0.0 3.2 0.00 0.00 0.00 79 1016.7
20260502033040 12 0 0.0 3.2 0.00 0.00 0.00 78 1015.6
20260502031540 12 0 0.0 6.4 0.00 0.00 0.00 78 1015.8
20260502031537 12 199 0.0 8.0 0.00 0.00 0.00 78 1016.9
20260502030042 12 263 3.2 11.3 0.00 0.00 0.00 78 1015.9
20260502030036 12 252 1.6 11.3 0.00 0.00 0.00 78 1017.0
20260502024537 12 259 1.6 11.3 0.00 0.00 0.00 79 1017.1
20260502024535 12 227 1.6 11.3 0.00 0.00 0.00 78 1015.9
20260502023033 12 236 1.6 8.0 0.00 0.00 0.00 80 1017.1